Location: Benfeld
(48.3704°N, 7.5961°E)
Time: 02:07:51
(UTC+00:00)

Daily predictions for brighter satellites

Satellite Brightness Start Highest point End
(mag) Time Altitude Azimuth Time Altitude Azimuth Time Altitude Azimuth
Cosmos 1943 Rocket 4.4 03:46:38 14° N 03:49:29 20° NE 03:53:35 10° E
Lacrosse 4 Rocket 4.3 03:52:58 10° SE 03:55:31 16° ESE 03:58:06 10° ENE
ADEOS 4.4 03:55:47 10° NNE 04:00:51 48° E 04:04:02 21° SSE
Cosmos 2278 Rocket 2.8 04:02:53 49° SSE 04:02:53 49° SSE 04:06:57 10° SSE
Cosmos 1953 4.5 04:04:47 23° NE 04:04:47 23° NE 04:06:39 10° NNE
Cosmos 2219 Rocket 3.1 04:13:24 37° N 04:13:24 37° N 04:16:56 10° NNE
Cosmos 2237 Rocket 2.8 04:10:08 34° S 04:12:23 56° ESE 04:17:58 10° NE
NOSS 0 Rocket 4.0 04:12:13 49° S 04:13:55 72° ESE 04:20:06 10° NNE
MOS 1 Rocket 4.3 04:15:02 10° SE 04:19:38 44° ENE 04:23:21 14° N
Meteor 2-10 4.2 04:21:23 64° N 04:21:23 64° N 04:25:58 10° N
Cosmos 2084 Rocket 4.4 04:20:48 44° NE 04:20:48 44° NE 04:25:01 10° ESE
Cosmos 372 Rocket 4.2 04:20:09 54° N 04:21:13 69° ENE 04:26:26 10° SSE
USA 215 3.6 04:17:40 10° ENE 04:23:52 48° NNW 04:24:49 45° NW
ATLAS CENTAUR R/B 3.3 04:25:10 19° SSE 04:26:26 23° ESE 04:29:24 10° ENE
Cosmos 2333 Rocket 3.1 04:28:09 34° NNW 04:28:09 34° NNW 04:31:53 10° NNE
Cosmos 1937 Rocket 4.5 04:33:45 33° SSW 04:33:45 33° SSW 04:36:43 10° S
Meteor 1-21 Rocket 4.2 04:26:31 11° N 04:32:05 86° ENE 04:37:56 10° SSE
ERS-2 3.0 04:29:55 10° SSE 04:33:02 48° E 04:33:02 48° E
CZ-2C R/B 3.8 04:35:49 13° S 04:35:49 13° S 04:37:37 10° SSE
COSMO-SKYMED 1 2.5 04:31:28 10° SSE 04:35:45 83° E 04:35:45 83° E
Atlas Centaur 2 4.5 04:34:14 16° SSW 04:37:15 20° S 04:42:44 10° SE
Cosmos 2297 4.5 04:33:30 19° NNW 04:37:30 51° NE 04:43:04 10° SE
Cosmos 1814 Rocket 4.3 04:33:56 11° S 04:38:49 65° ESE 04:43:55 10° NNE
USA 307 4.5 04:39:20 23° S 04:40:59 31° SE 04:44:45 10° ENE
FENGYUN 3A 3.9 04:36:21 10° N 04:40:52 49° NW 04:40:52 49° NW
Cosmos 2360 Rocket 4.0 04:46:03 17° NNW 04:46:03 17° NNW 04:48:22 10° N
SL-16 R/B 4.4 04:46:48 11° NNW 04:46:48 11° NNW 04:47:42 10° N
Cosmos 1980 3.5 04:43:48 36° SW 04:46:14 81° WNW 04:51:56 10° NNE
Cosmos 540 Rocket 3.3 04:45:13 47° SW 04:46:43 77° WNW 04:51:53 10° NNE
COSMOS 2428 3.3 04:48:01 38° NW 04:48:01 38° NW 04:52:48 10° NNE
Cosmos 1544 Rocket 3.4 04:47:42 75° NW 04:47:42 75° NW 04:51:52 10° N
USA 305 4.2 04:46:26 25° S 04:48:13 36° SE 04:52:07 10° ENE
Cosmos 2322 Rocket 4.3 04:49:36 12° NNW 04:49:36 12° NNW 04:50:48 10° N
Lacrosse 5 rocket 2.7 04:50:23 25° S 04:50:23 25° S 04:52:18 10° SSE
USA 308 4.3 04:47:49 23° S 04:49:50 36° SE 04:53:46 10° ENE
Cosmos 2208 Rocket 4.2 04:45:59 10° SSW 04:51:24 76° ESE 04:56:49 10° NNE
Cosmos 1513 Rocket 4.5 04:47:38 10° SSW 04:53:49 58° WNW 04:59:56 10° N
SJ-12 3.8 04:49:49 10° N 04:54:00 79° WNW 04:55:46 34° SSW
Cosmos 1461 3.8 05:00:04 38° NW 05:00:04 38° NW 05:04:19 10° NNE
USA 306 3.9 04:58:05 23° SSW 05:00:17 43° SE 05:04:19 10° ENE
Cosmos 1328 3.8 04:58:50 21° N 05:01:23 79° ENE 05:05:18 10° SSE
PSLV R/B 3.9 04:58:14 10° SSE 05:02:22 86° ENE 05:05:41 16° NNW
ATLAS 5 CENTAUR R/B 3.3 05:03:45 21° SSW 05:03:45 21° SSW 05:06:10 10° SSE
ALOS 3.9 04:59:19 10° N 05:01:06 20° NNW 05:01:06 20° NNW
Cosmos 1626 Rocket 3.5 05:01:47 33° NNW 05:03:40 63° W 05:08:04 10° S
BREEZE M DEB (TANK) 4.1 05:02:56 12° S 05:04:11 16° SE 05:06:19 10° E
SAR-Lupe-4 3.4 05:01:01 10° SSE 05:04:36 89° E 05:05:51 39° NNW
Cosmos 1400 Rocket 2.8 05:02:41 10° S 05:06:48 88° WNW 05:10:58 10° NNE
CZ-4B R/B 2.5 05:04:12 10° NNE 05:07:51 85° WNW 05:11:35 10° SSW
Cosmos 1689 Rocket 2.2 05:05:07 10° SSE 05:07:40 66° SSE 05:07:40 66° SSE
CZ-4B R/B 4.3 05:03:49 10° N 05:08:08 47° WNW 05:08:43 44° W
SL-4 R/B 2.4 05:07:48 32° SSW 05:09:16 53° SSE 05:13:13 10° ENE
Cosmos 1464 Rocket 4.1 05:03:40 10° SSW 05:09:33 47° WNW 05:15:30 10° N
Cosmos 1908 3.0 05:07:06 10° SSW 05:10:52 65° WNW 05:14:41 10° N
CENTAUR R/B 3.7 05:07:06 10° S 05:12:36 43° ESE 05:19:03 10° NE
Cosmos 1340 2.9 05:17:50 45° W 05:17:51 45° W 05:21:27 10° S
deb Chang Zheng 4 3.5 05:16:25 10° N 05:20:36 58° WNW 05:24:45 10° SSW
SAR-Lupe-1 4.0 05:17:23 10° S 05:20:53 59° WSW 05:22:27 30° NW
Meteor 1-16 Rocket 4.3 05:17:38 10° SSW 05:23:29 60° WNW 05:29:22 10° N
SKYMED 2 4.2 05:20:06 10° SSW 05:24:01 33° W 05:24:21 32° W
SWAS 4.3 05:21:22 15° SW 05:24:47 66° WNW 05:29:05 10° NNE
Cosmos 1758 Rocket 3.5 05:23:44 10° N 05:28:16 84° W 05:32:43 10° S
GEOS 3 Rocket 3.7 05:26:12 10° SSE 05:31:31 62° SW 05:35:32 18° NW
Cosmos 1092 Rocket 3.9 05:26:47 10° NNW 05:32:50 61° W 05:38:53 10° S
Lacrosse 4 Rocket 1.4 05:29:25 10° SW 05:33:38 68° NW 05:38:01 10° NNE
YAOGAN 6 2.5 05:30:01 10° N 05:33:44 83° WNW 05:37:26 10° SSW
Cosmos 1943 Rocket 2.2 05:28:25 10° NNW 05:34:08 83° ENE 05:39:49 10° SSE
Cosmos 841 Rocket 4.0 05:32:40 19° WSW 05:35:42 35° WNW 05:40:27 10° N
Cosmos 2369 Rocket 2.8 05:31:17 10° NNW 05:36:49 55° ENE 05:42:18 10° SE
CZ-2C R/B 2.8 05:33:44 10° SSE 05:38:58 76° ENE 05:44:21 10° N
Cosmos 1953 3.6 05:40:32 21° NW 05:40:32 21° NW 05:42:45 10° NNW
USA 238 DEB 3.8 05:33:22 10° SSW 05:39:56 78° SE 05:46:52 10° NE
USA 238 3.8 05:33:29 10° SSW 05:40:03 78° SE 05:46:58 10° NE
ADEOS 4.4 05:35:44 10° N 05:40:09 28° WNW 05:44:32 10° WSW
Cosmos 2279 Rocket 4.3 05:35:59 10° S 05:42:10 70° E 05:48:25 10° NNE
BREEZE-M (TANK) 3.2 05:43:28 16° SW 05:43:28 16° SW 05:44:49 10° S
BREEZE-M DEB (TANK) 3.6 05:40:51 12° SW 05:43:54 65° SSE 05:54:50 10° ENE
Cosmos 2150 Rocket 4.3 05:39:24 11° NNW 05:44:26 49° WSW 05:49:37 10° S
Cosmos 2278 Rocket 3.7 05:44:47 16° W 05:44:47 16° W 05:47:53 10° SW
Cosmos 1602 Rocket 4.3 05:41:33 10° NNW 05:45:32 32° W 05:49:31 10° SSW
Cosmos 1726 Rocket 4.0 05:41:23 10° S 05:45:38 62° E 05:49:55 10° NNE
SL-16 R/B 2.1 05:41:08 10° SSW 05:46:48 79° WNW 05:52:30 10° NNE
CZ-4B R/B 4.2 05:42:58 10° NNE 05:48:30 52° E 05:53:56 10° S
Cosmos 1408 4.4 05:45:42 10° N 05:48:59 33° ENE 05:52:16 10° SE
Okean O Rocket 2.7 05:46:58 10° NNE 05:51:13 48° E 05:55:24 10° S
BREEZE-M DEB (TANK) 1.7 05:51:30 28° WNW 05:52:27 69° N 05:55:25 10° E
FALCON 9 DEB 3.7 05:51:52 21° WNW 05:53:42 41° N 05:56:58 10° ENE
H-2A R/B 3.3 05:51:34 10° N 05:54:54 32° WNW 05:58:14 10° SW
Cosmos 2219 Rocket 3.8 05:55:08 13° NW 05:56:40 15° NW 05:59:46 10° N
Meteor 2-19 Rocket 4.4 05:50:41 10° NNW 05:56:44 63° W 06:02:43 10° S
Cosmos 2237 Rocket 3.0 05:52:03 11° WSW 05:56:47 31° NW 06:01:49 10° NNE
MOS 1 Rocket 4.4 05:54:06 10° SSW 05:58:03 24° W 06:01:51 10° NW
Cosmos 2084 Rocket 4.4 05:57:21 16° WNW 06:00:08 32° WSW 06:04:08 10° S
Cosmos 1315 Rocket 2.7 05:56:21 10° SSW 06:00:14 66° WNW 06:04:09 10° N
Cosmos 1825 Rocket 3.7 05:57:29 10° NNW 06:01:51 52° W 06:06:10 10° S
Cosmos 1634 Rocket 4.0 05:55:55 10° SSW 06:01:57 57° WNW 06:08:04 10° N
Cosmos 2098 Rocket 3.7 05:57:08 10° NNW 06:02:56 51° W 06:07:31 10° SSW
FALCON 9 DEB 4.3 06:00:07 10° SW 06:03:02 38° SE 06:05:57 10° ENE
SL-19 R/B 4.0 05:59:17 10° NNE 06:03:13 83° WNW 06:06:35 10° SSW
ATLAS CENTAUR R/B 1.6 06:01:38 10° WSW 06:05:06 38° NW 06:08:35 10° NNE
USA 215 3.9 06:00:06 10° ENE 06:06:10 43° N 06:12:10 10° WNW
MOS 1-B 4.3 06:00:38 10° NNE 06:06:26 84° WNW 06:12:13 10° SSW
ERS-2 3.9 06:05:27 10° WSW 06:07:18 13° W 06:07:38 13° W
Cosmos 1455 3.7 06:07:57 10° SSE 06:11:27 40° E 06:15:00 10° NNE
Cosmos 1825 3.7 06:08:02 10° N 06:11:37 38° ENE 06:15:10 10° SE
Cosmos 2333 Rocket 4.0 06:10:10 10° NW 06:12:26 12° NNW 06:14:41 10° N
COSMO-SKYMED 1 4.4 06:11:06 10° WSW 06:12:34 11° W 06:12:59 11° W
Cosmos 1346 Rocket 3.7 06:09:56 10° NNW 06:13:21 28° W 06:16:47 10° SSW
PAYLOAD B 4.2 06:07:50 10° NNE 06:13:26 77° WNW 06:19:01 10° SSW
CZ-2C R/B 3.9 06:14:00 10° SSW 06:14:20 10° SSW 06:14:39 10° S
Cosmos 2266 Rocket 4.2 06:08:33 10° N 06:14:37 75° E 06:20:39 10° SSE
DMSP B5D2-2 4.1 06:09:35 10° S 06:14:50 77° WSW 06:20:09 10° NNW
Cosmos 1656 Rocket 4.1 06:09:42 10° NNW 06:15:08 63° ENE 06:20:30 10° SE
Cosmos 2292 Rocket 2.7 06:13:09 10° NNW 06:16:05 58° W 06:19:19 10° S
Cosmos 1300 3.3 06:15:04 10° SW 06:18:32 33° WNW 06:22:02 10° N
Envisat 3.5 06:14:43 10° N 06:19:25 39° WNW 06:24:05 10° SW
Cosmos 1125 Rocket 4.2 06:14:53 10° NW 06:19:37 34° WSW 06:24:21 10° SSW
Cosmos 1184 Rocket 4.1 06:17:22 10° N 06:20:30 42° ENE 06:23:37 10° SSE
USA 307 2.9 06:16:34 10° WSW 06:20:47 68° NNW 06:25:01 10° ENE
H-2A R/B 2.7 06:19:47 10° N 06:24:13 58° WNW 06:28:38 10° SSW
AQUARIUS 4.1 06:20:09 10° N 06:24:38 66° WNW 06:29:05 10° SSW
NOAA 11 4.2 06:19:20 10° NNE 06:24:49 85° WNW 06:30:16 10° SSW
Cosmos 1953 Rocket 3.9 06:21:42 10° NNW 06:25:49 43° W 06:29:56 10° SSW
CZ-2C R/B 4.5 06:21:20 10° NNE 06:27:01 50° E 06:32:31 10° S
Iridium 4 Rocket 4.4 06:21:55 10° S 06:27:39 66° E 06:33:31 10° N
USA 305 3.0 06:23:52 10° WSW 06:28:04 62° NNW 06:32:17 10° ENE
USA 308 3.0 06:25:28 10° WSW 06:29:44 62° NNW 06:33:58 10° ENE
Cosmos 2228 3.7 06:26:41 10° SW 06:30:30 32° WNW 06:34:21 10° N
Cosmos 1809 Rocket 4.5 06:24:19 10° NNW 06:30:31 75° W 06:36:41 10° S
FengYun 1-2 T 4.3 06:25:08 10° NNE 06:30:50 84° WNW 06:36:30 10° SSW
NOSS 3-2 (A) 3.7 06:30:51 10° WSW 06:36:30 49° NW 06:43:04 10° NE
